This is the latest recevied weather packets stored in our database for station/object F4ELU-13. If no packets are shown the sender has not sent any weather packets the latest 10 day(s).
| Time | Temp. | Humidity | Pressure | Rain* | Wind** | Luminosity | Snow |
|---|---|---|---|---|---|---|---|
| 1778074023 | 15.56° C | 80% | 1009 hPa | 0 mm | - | - | - |
| 1778073483 | 15° C | 81% | 1009.1 hPa | 0 mm | - | - | - |
| 1778072943 | 14.44° C | 82% | 1009 hPa | 0 mm | - | - | - |
| 1778072403 | 13.89° C | 82% | 1009.1 hPa | 0 mm | - | - | - |
| 1778072043 | 14.44° C | 81% | 1009 hPa | 0 mm | - | - | - |
| 1778071503 | 14.44° C | 83% | 1009 hPa | 0 mm | - | - | - |
| 1778070963 | 14.44° C | 82% | 1009 hPa | 0 mm | - | - | - |
| 1778070423 | 15° C | 81% | 1009 hPa | 0 mm | - | - | - |
| 1778069883 | 15° C | 84% | 1009 hPa | 0 mm | - | - | - |
| 1778069343 | 14.44° C | 82% | 1009.1 hPa | 0 mm | - | - | - |
| 1778068803 | 15° C | 83% | 1009.1 hPa | 0 mm | - | - | - |
| 1778068443 | 14.44° C | 83% | 1009 hPa | 0 mm | - | - | - |
| 1778067903 | 14.44° C | 83% | 1009.1 hPa | 0 mm | - | - | - |
| 1778067363 | 14.44° C | 84% | 1009.2 hPa | 0 mm | - | - | - |
| 1778066823 | 14.44° C | 83% | 1009.3 hPa | 0 mm | - | - | - |
| 1778066283 | 13.89° C | 83% | 1009.3 hPa | 0 mm | - | - | - |
| 1778065743 | 13.89° C | 86% | 1009.3 hPa | 0 mm | - | - | - |
| 1778065203 | 13.89° C | 87% | 1009.4 hPa | 0 mm | - | - | - |
| 1778064843 | 13.33° C | 87% | 1009.4 hPa | 0 mm | - | - | - |
| 1778064303 | 13.33° C | 87% | 1009.3 hPa | 0 mm | - | - | - |
| 1778063763 | 13.33° C | 89% | 1009.4 hPa | 0 mm | - | - | - |
| 1778063224 | 13.33° C | 89% | 1009.4 hPa | 0 mm | - | - | - |
| 1778062683 | 12.78° C | 91% | 1009.3 hPa | 0 mm | - | - | - |
| 1778062143 | 12.78° C | 90% | 1009.3 hPa | 0 mm | - | - | - |
| 1778061603 | 12.78° C | 89% | 1009.3 hPa | 0 mm | - | - | - |
* Rain latest hour (hover to see other rain measurements)
** Current wind speed in m/s (hover to see current wind gust speed)